TIME,DELAY(SENSOR),PRES,T(CTD),SAL,OXYGEN,RAWTEMP,T(OPTODE),TCPHASE,FLUOR,BETA(BETA700),BETA(BETA412),BETA(BETA440),CDOM,C(CSC),ED(ED411.90),ED(ED443.80),ED(ED489.40),ED(ED554.70),LU(LU412.20),LU(LU443.80),LU(LU489.40),LU(LU555.00),COMP,TILTX,TILTX(TILTY),CHECK
1340811069,5807,489.5899963378906000,15.3506002426147460,36.0589981079101560,202.9972991943359400,243.1894989013672000,15.3469800949096680,33.6589012145996100,51,100,99,81,71,14794,2146953764,2147514294,2147273051,2147481755,2147087149,2146943488,2147670537,2147120594,1763,-2,8,17155
1340811179,5803,478.4100036621094000,15.5684995651245120,36.0988006591796900,203.3522033691406200,235.9743957519531200,15.5643701553344730,33.5336990356445300,50,102,100,81,70,14793,2146953188,2147517531,2147275538,2147478034,2147086994,2146944310,2147667849,2147122468,1692,-2,8,38852
1340811300,5806,466.6099853515625000,15.7055997848510740,36.1175003051757800,200.9812927246093800,231.6007995605468800,15.6961402893066400,33.6102485656738300,51,101,98,79,71,14795,2146953124,2147515245,2147271689,2147478418,2147081572,2146945408,2147667172,2147122678,1456,-2,8,9411
1340811453,5805,455.6099853515625000,15.8170003890991210,36.1389007568359400,203.0187072753906200,227.6983947753906200,15.8137102127075200,33.4342384338378900,51,101,98,79,72,14794,2146952402,2147512146,2147272749,2147477860,2147085686,2146952338,2147665609,2147124598,1226,-2,8,22144
1340811639,5806,442.4800109863281000,16.0062999725341800,36.1692008972168000,203.6439971923828000,221.4288024902343800,16.0026092529296880,33.3080596923828100,51,101,98,79,70,14792,2146953609,2147513216,2147271122,2147475785,2147088914,2146948342,2147662939,2147126134,1479,-2,8,36322
1340811771,5806,431.8699951171875000,16.1508998870849600,36.1927986145019500,201.3441925048828000,216.7274932861328000,16.1442604064941400,33.3754196166992200,52,102,99,80,71,14793,2146955117,2147514797,2147272740,2147475428,2147085028,2146949613,2147662939,2147119323,1302,-2,8,46702
1340811950,5805,417.7699890136719000,16.3677005767822270,36.2349014282226560,204.5798950195312500,209.4102935791015600,16.3647403717041000,33.0831718444824200,51,101,99,80,70,14794,2146957339,2147516096,2147272676,2147471323,2147085814,2146952557,2147662628,2147122678,1424,-2,8,59384
1340812071,5804,407.4400024414062500,16.5601997375488280,36.2731018066406250,207.7494964599609400,202.6967010498047000,16.5670604705810550,32.8069915771484400,51,101,98,80,70,14792,2146951076,2147515931,2147270235,2147470866,2147086793,2146950628,2147661312,2147124571,1020,-2,8,63315
1340812205,5804,396.2000122070312500,16.8041992187500000,36.3203010559082000,213.2978057861328000,195.0261993408203000,16.7982597351074220,32.3913116455078100,52,100,98,80,68,14793,2146952420,2147512585,2147275803,2147473069,2147087277,2146948553,2147657334,2147120603,1084,-2,8,56060
1340812337,5804,384.9500122070312500,16.9477996826171880,36.3464012145996100,214.1224975585937500,190.2870025634765600,16.9411296844482420,32.2801704406738300,50,101,99,80,69,14794,2146951634,2147515766,2147272283,2147469010,2147083885,2146954578,2147658944,2147122770,1277,-2,8,28862
1340812458,5803,374.2099914550781000,17.0531005859375000,36.3695983886718750,216.4187927246093800,186.7310028076172000,17.0483493804931640,32.1069297790527340,50,100,98,80,69,14795,2146953856,2147514093,2147272987,2147470518,2147085824,2146950290,2147660141,2147123145,1303,-2,8,18267
1340812581,5802,362.4899902343750000,17.2154006958007800,36.4026985168457000,220.8265991210937500,181.2196044921875000,17.2145500183105470,31.7976207733154300,50,101,98,80,69,14793,2146952740,2147513993,2147271040,2147464905,2147083638,2146951131,2147658404,2147122816,1124,-2,8,26995
1340812691,5804,351.2000122070312500,17.3325996398925780,36.4230003356933600,222.8040008544922000,177.4400024414062500,17.3285503387451170,31.6427307128906250,50,101,99,81,68,14793,2146953581,2147515117,2147272566,2147468470,2147085138,2146948818,2147654646,2147121289,1357,-2,8,59354
1340812801,5805,339.1900024414062500,17.4094009399414060,36.4342002868652340,221.2257995605468800,174.5953979492187500,17.4143600463867200,31.6858692169189450,50,100,99,81,70,14794,2146952493,2147512502,2147272795,2147465682,2147084736,2146949531,2147655570,2147114048,1309,-2,8,47960
1340812918,5805,327.0799865722656000,17.5142993927001950,36.4527015686035160,222.5292968750000000,171.5124969482422000,17.5073699951171880,31.5760993957519530,51,99,98,82,69,14792,2146954404,2147513078,2147273124,2147465280,2147086893,2146951186,2147657499,2147124955,1202,-2,8,60017
1340813039,5803,315.7799987792969000,17.5907993316650400,36.4631996154785160,222.6065063476562500,169.0937042236328000,17.5803604125976560,31.5390300750732420,50,100,98,80,69,14795,2146951926,2147516342,2147273307,2147466477,2147084745,2146950893,2147658998,2147123465,1338,-2,8,41415
1340813149,5802,305.5400085449219000,17.6618995666503900,36.4790992736816400,223.2120056152343800,166.5000000000000000,17.6586303710937500,31.4726200103759770,50,99,99,81,68,14795,2146951360,2147517668,2147278016,2147465270,2147082779,2146953618,2147660681,2147124068,1328,-2,8,21116
1340813272,5805,294.4599914550781000,17.7376003265380860,36.4922981262207000,225.7505950927734400,163.8943939208984400,17.7372703552246100,31.3075294494628900,51,103,99,81,69,14795,2146955483,2147516854,2147280822,2147463442,2147084827,2146952676,2147663835,2147119716,1560,-2,8,42613
1340813404,5804,283.2000122070312500,17.8076000213623050,36.5014991760253900,224.6427001953125000,161.7156982421875000,17.8030395507812500,31.3341999053955080,51,99,98,82,69,14796,2146953627,2147518418,2147282422,2147462838,2147086738,2146961536,2147663890,2147129042,1903,-2,8,52643
1340813538,5806,272.9299926757812500,17.8840999603271500,36.5152015686035160,225.1894989013672000,159.3150024414062500,17.8755207061767580,31.2739696502685550,50,101,98,82,68,14795,2146952905,2147521499,2147286235,2147461540,2147084992,2146960393,2147664054,2147126720,1378,-2,8,35970
1340813703,5805,261.8599853515625000,17.9650001525878900,36.5214996337890600,223.8665924072265600,156.4555969238281200,17.9618606567382800,31.3024196624755860,51,100,98,82,68,14793,2146954541,2147521078,2147284187,2147463286,2147085632,2146961353,2147667072,2147124763,1047,-2,8,43733
1340813877,5803,249.8600006103515600,18.1177997589111330,36.5401992797851560,222.0359039306640600,151.2306060791015600,18.1196708679199220,31.3258705139160160,50,103,99,82,68,14787,2146955748,2147521947,2147290404,2147463186,2147083008,2146958317,2147665380,2147126902,1184,-2,8,43197
1340814009,5807,238.5200042724609400,18.3034992218017580,36.5642013549804700,225.7949981689453000,145.2693023681640600,18.2997798919677730,31.0539207458496100,51,105,99,80,69,14786,2146951469,2147523675,2147294080,2147462985,2147085074,2146955117,2147669915,2147123209,947,-2,8,37122
1340814132,5805,227.3000030517578000,18.5161991119384770,36.5764999389648440,220.1638031005859400,137.8695983886718800,18.5234603881835940,31.2421894073486330,52,105,99,83,68,14784,2146953846,2147527040,2147302308,2147461659,2147086061,2146963465,2147669110,2147127570,518,-2,8,41050
1340814242,5807,216.3899993896484400,18.7597999572753900,36.5864982604980500,224.3710021972656200,130.0195007324218800,18.7608890533447270,30.9215908050537100,50,105,101,82,69,14778,2146953051,2147535533,2147324626,2147458980,2147083108,2146970368,2147678171,2147125787,869,-2,8,51962
1340814352,5804,205.2799987792968800,19.0219001770019530,36.5928001403808600,235.0782012939453000,121.6576004028320300,19.0139694213867200,30.2844390869140620,51,107,99,81,66,14777,2146952886,2147542866,2147339428,2147460845,2147080466,2146974829,2147686665,2147127625,1047,-2,8,23683
1340814450,5805,195.5000000000000000,19.1963996887207030,36.6030006408691400,242.1508941650390600,116.1093978881836000,19.1819992065429700,29.8799304962158200,51,105,101,83,66,14774,2146952466,2147546404,2147348608,2147457508,2147085321,2146978413,2147693321,2147127661,552,-2,8,27940
1340814505,5806,190.4299926757812500,19.2530994415283200,36.6058006286621100,246.8665008544922000,113.9209976196289000,19.2482891082763670,29.6370201110839840,51,107,100,83,65,14778,2146956160,2147560073,2147367378,2147458148,2147079186,2146989677,2147707337,2147123913,564,-2,8,26480
1340814560,5804,185.4799957275390600,19.2928009033203120,36.6072006225585940,250.7821960449218800,112.5008010864257800,19.2913303375244140,29.4445590972900400,51,113,100,83,65,14775,2146958354,2147572818,2147396022,2147456173,2147082669,2146996187,2147723382,2147126336,578,-2,8,43817
1340814615,5806,180.6199951171875000,19.3188991546630860,36.6073989868164060,254.0836944580078000,111.6862030029296900,19.3160095214843750,29.2897396087646500,52,107,99,83,64,14773,2146957915,2147589796,2147433106,2147453622,2147086464,2147009782,2147744740,2147130358,655,-2,8,29052
1340814670,5804,175.9600067138672000,19.3355998992919920,36.6066017150878900,255.4727020263672000,111.1965026855468800,19.3308506011962900,29.2232704162597660,51,106,99,82,64,14776,2146961362,2147606272,2147469174,2147454921,2147086107,2147027282,2147763986,2147132214,666,-2,8,64974
1340814725,5806,171.5599975585937500,19.3388996124267580,36.6048011779785160,256.6348876953125000,111.1828994750976600,19.3312606811523440,29.1730308532714840,52,107,100,82,64,14773,2146964626,2147612790,2147484553,2147453787,2147088676,2147031405,2147775204,2147135616,357,-2,8,54312
1340814802,5805,166.1999969482422000,19.3369007110595700,36.5994987487793000,257.8221130371094000,111.0988998413086000,19.3338108062744140,29.1211490631103500,54,107,100,83,64,14773,2146966134,2147625490,2147504164,2147453339,2147088850,2147039058,2147787227,2147130368,3562,-2,8,5761
1340814868,5800,162.5500030517578000,19.3463001251220700,36.5987014770507800,258.3304138183594000,110.8644027709961000,19.3409194946289060,29.0965309143066400,53,108,102,82,64,14775,2146970038,2147655579,2147566482,2147455625,2147092726,2147059830,2147826486,2147135844,3478,-2,8,32093
1340814945,5804,158.7200012207031200,19.3533000946044920,36.5984992980957000,258.9208068847656000,110.6288986206054700,19.3480491638183600,29.0684700012207030,56,110,100,83,65,14772,2146978752,2147695515,2147658304,2147456877,2147103552,2147097499,2147881142,2147139529,3277,-2,8,13896
1340815033,5808,154.7299957275390600,19.3481006622314450,36.5971984863281250,258.9366149902344000,110.7442016601562500,19.3445606231689450,29.0691699981689450,57,108,101,83,65,14763,2146987392,2147735643,2147726290,2147456054,2147099190,2147126930,2147914852,2147140324,3572,-2,8,30937
1340815123,5806,150.8600006103515600,19.3470993041992200,36.5951004028320300,258.9046936035156000,110.7986984252929700,19.3429107666015620,29.0714092254638670,58,110,101,83,65,14765,2146990665,2147744466,2147737124,2147453952,2147104859,2147131044,2147917613,2147142308,113,-2,8,12504
1340815222,5808,146.4700012207031200,19.3728008270263670,36.6012001037597660,259.4057006835937500,110.0296020507812500,19.3662204742431640,29.0403499603271500,58,109,102,82,65,14768,2146996443,2147762331,2147751597,2147454802,2147106505,2147142198,2147930733,2147139611,61,-2,8,1
1340815299,5803,142.5500030517578000,19.3738002777099600,36.5996017456054700,259.8205871582031000,109.9328994750976600,19.3691501617431640,29.0214805603027340,60,113,100,82,65,14764,2147003766,2147764909,2147755812,2147457819,2147118976,2147146889,2147929389,2147139364,3361,-2,8,63663
1340815376,5806,137.9600067138672000,19.3672008514404300,36.5969009399414060,259.7573852539062500,110.0989990234375000,19.3641109466552730,29.0260791778564450,63,112,102,82,65,14746,2147002322,2147758656,2147731117,2147456667,2147110235,2147137243,2147916662,2147142006,3211,-2,8,45081
1340815433,5804,134.0800018310547000,19.3654994964599600,36.5952987670898440,259.7033996582031000,110.1840972900390600,19.3615398406982420,29.0294895172119140,66,111,100,83,64,14753,2147002322,2147762980,2147741979,2147454198,2147108342,2147140662,2147918729,2147139099,3303,-2,8,59872
1340815488,5805,130.0500030517578000,19.3679008483886720,36.5934982299804700,259.7797851562500000,110.1177978515625000,19.3635501861572270,29.0254592895507800,66,112,100,82,64,14759,2147010185,2147776320,2147761828,2147456585,2147115620,2147149421,2147931602,2147142582,3274,-2,8,22006
1340815543,5805,125.9199981689453100,19.3668994903564450,36.5937995910644500,259.9458007812500000,110.1371994018554700,19.3629608154296880,29.0187091827392580,68,111,101,84,64,14758,2147017270,2147807195,2147837220,2147458651,2147122057,2147172077,2147971081,2147144978,3089,-2,8,50966
1340815598,5804,121.8099975585937500,19.3616008758544920,36.5904006958007800,259.7856140136719000,110.2863006591796900,19.3584403991699220,29.0272808074951170,74,122,102,83,64,14747,2147034459,2147862518,2147941915,2147456603,2147133028,2147220891,2148026770,2147146898,2916,-2,8,35114
1340815653,5802,117.8499984741211000,19.3621997833251950,36.5914993286132800,259.4948120117187500,110.2465972900390600,19.3596401214599600,29.0393199920654300,77,117,101,84,64,14748,2147053019,2147927753,2148059922,2147460690,2147138340,2147256685,2148091117,2147151305,2899,-2,8,28250
1340815708,5802,114.1699981689453100,19.3771991729736330,36.5942001342773440,259.1755065917969000,109.7160034179687500,19.3757305145263670,29.0459403991699220,82,118,102,84,64,14746,2147071460,2147993600,2148163721,2147462811,2147149366,2147294747,2148140918,2147160795,2862,-2,8,53113
1340815785,5807,109.9499969482421900,19.3810005187988280,36.5931015014648440,259.4928894042969000,109.6679992675781200,19.3771800994873050,29.0318508148193360,88,116,103,85,64,14740,2147095122,2148054134,2148266139,2147462555,2147154688,2147321517,2148185819,2147159579,2898,-2,8,12142
1340815873,5811,106.9899978637695300,19.3871994018554700,36.5937995910644500,259.4305114746094000,109.4981002807617200,19.3823299407959000,29.0322608947753900,90,118,102,83,64,14738,2147135168,2148157138,2148439085,2147472758,2147179401,2147378294,2148271798,2147169572,2711,-2,8,26890
1340816016,5806,103.2600021362304700,19.3805999755859380,36.5900001525878900,260.0899963378906000,109.6423034667968800,19.3779602050781250,29.0062599182128900,103,121,102,83,64,14730,2147168758,2148235840,2148551862,2147476123,2147197366,2147419099,2148310409,2147169408,2820,-2,8,31904
1340816145,5804,98.6399993896484400,19.3899002075195300,36.5890007019043000,260.5357971191406000,109.3982009887695300,19.3853607177734380,28.9844703674316400,109,124,103,85,65,14719,2147292589,2148580937,2149136228,2147491913,2147251273,2147594102,2148572004,2147191067,2927,-2,8,19628
1340816200,5805,96.2399978637695300,19.3941993713378900,36.5884017944335940,260.9805908203125000,109.2519989013671900,19.3897895812988280,28.9638690948486330,112,123,103,84,66,14708,2147377901,2148820342,2149521298,2147507584,2147296475,2147703085,2148735808,2147207597,3096,-2,8,7775
1340816255,5806,93.8799972534179700,19.3957004547119140,36.5886001586914060,261.4489135742187500,109.1789016723632800,19.3920097351074220,28.9433708190917970,114,123,101,85,66,14717,2147485805,2149096493,2149981056,2147522642,2147334473,2147835373,2148921462,2147221056,3102,-2,8,62861
1340816310,5805,91.5899963378906200,19.3717002868652340,36.5741004943847660,262.4605102539062500,109.8957977294921900,19.3702697753906250,28.9101600646972660,112,123,102,84,66,14701,2147590902,2149349120,2150351168,2147538742,2147370093,2147937042,2149061229,2147235474,2997,-2,8,22654
1340816365,5806,89.4100036621093800,19.3810005187988280,36.5730018615722660,263.2843933105469000,109.6708984375000000,19.3770904541015620,28.8729000091552730,114,122,102,84,67,14702,2147686884,2149546267,2150616283,2147549156,2147409216,2148010550,2149145618,2147244845,2951,-2,8,70
1340816422,5806,87.2799987792968800,19.3960990905761720,36.5735015869140600,264.5989990234375000,109.1754989624023400,19.3921108245849600,28.8120994567871100,114,125,105,84,67,14693,2147807817,2149802267,2150948333,2147568292,2147444452,2148095076,2149262802,2147260690,2996,-2,9,52798
1340816477,5806,85.3399963378906200,19.4211997985839840,36.5750007629394500,265.7419128417969000,108.3414001464843800,19.4173908233642580,28.7544307708740230,116,126,104,84,66,14692,2147964809,2150131821,2151381302,2147586788,2147511204,2148223817,2149414948,2147277211,3129,-2,9,10919
1340816532,5804,83.4499969482421900,19.4566001892089840,36.5780982971191400,266.3861083984375000,107.2437973022461000,19.4506702423095700,28.7139091491699220,121,127,103,85,66,14680,2148185755,2150590665,2151981915,2147616027,2147586861,2148400128,2149637339,2147300251,3340,-2,8,20366
1340816587,5804,81.7099990844726600,19.4761009216308600,36.5794982910156250,266.2825927734375000,106.5877990722656200,19.4705600738525400,28.7099494934082030,127,131,104,87,67,14672,2148504128,2151269632,2152879131,2147660242,2147709595,2148664758,2149969408,2147335177,3330,-2,8,13874
1340816642,5805,79.9800033569336000,19.4953994750976560,36.5808982849121100,266.7091064453125000,105.9595031738281200,19.4896106719970700,28.6844902038574220,125,129,104,87,67,14662,2148823798,2151906761,2153670628,2147699062,2147833563,2148910125,2150275858,2147369865,3049,-2,8,3983
1340816708,5804,77.8700027465820300,19.5123004913330080,36.5801010131835940,267.5094909667969000,105.2530975341796900,19.5110301971435550,28.6428794860839840,121,132,104,86,68,14664,2149154834,2152519561,2154376722,2147734290,2147957138,2149150354,2150542683,2147402276,2889,-2,8,19772
1340816786,5801,74.8499984741211000,19.5820007324218750,36.5811996459960940,270.0758056640625000,103.2475967407226600,19.5718498229980470,28.5135993957519530,108,128,105,85,65,14654,2149791570,2153631616,2155639597,2147826642,2148205138,2149622875,2151049453,2147468434,2439,-2,9,56084
1340816841,5806,72.0899963378906200,19.6357002258300780,36.5821990966796900,272.8811950683594000,101.2163009643554700,19.6334705352783200,28.3755207061767580,106,132,105,87,65,14645,2150384658,2154588662,2156642203,2147909732,2148461302,2150050642,2151490642,2147524105,2296,-2,8,5093
1340816896,5805,69.3700027465820300,19.6847000122070300,36.5824012756347660,274.4735107421875000,99.4084396362304700,19.6883296966552730,28.2896709442138670,106,133,107,87,64,14632,2150711058,2154914468,2156748589,2147940662,2148613997,2150232941,2151575360,2147543771,2296,-2,8,10770
1340816951,5801,66.7399978637695300,19.7821006774902340,36.5830993652343750,275.7974853515625000,96.4582138061523400,19.7778606414794920,28.2004108428955080,105,134,108,87,65,14622,2150934226,2154998747,2156518208,2147973504,2148732397,2150320758,2151524598,2147546011,2192,-2,8,33217
1340817006,5802,64.1800003051757800,19.8442001342773440,36.5819015502929700,277.9678955078125000,94.5766067504882800,19.8349800109863280,28.0921897888183600,103,137,107,88,64,14616,2151431844,2155557458,2156894674,2148039104,2148969545,2150633901,2151750692,2147578358,2268,-2,8,47905
1340817061,5804,61.7599983215332000,19.8843002319335940,36.5802001953125000,279.0781860351562500,92.8086166381836000,19.8886604309082030,28.0270900726318360,102,136,107,88,64,14609,2151992932,2156217069,2157387840,2148107638,2149247780,2151006774,2152027200,2147616822,1935,-2,8,60371
1340817118,5803,59.2599983215332000,20.0233993530273440,36.5856018066406250,279.8027038574219000,89.2073287963867200,19.9980392456054700,27.9541797637939450,97,140,107,88,63,14611,2152582464,2156877869,2157881014,2148189933,2149542628,2151388288,2152302729,2147656960,1545,-2,8,35349
1340817173,5806,56.7599983215332000,20.1044998168945300,36.5915985107421900,280.7283935546875000,85.5276489257812500,20.1098499298095700,27.8727302551269530,96,135,108,88,64,14597,2153273920,2157660278,2158538678,2148319908,2149925494,2151871158,2152667748,2147715346,1092,-2,8,65437
1340817228,5806,54.4000015258789060,20.2828006744384770,36.5980987548828100,281.1673889160156000,80.7065505981445300,20.2564105987548830,27.7962493896484380,92,136,108,89,62,14603,2154122523,2158721417,2159524251,2148483081,2150400475,2152527680,2153185920,2147795730,1205,-2,8,58371
1340817370,5803,50.4099998474121100,20.4237995147705080,36.5962982177734400,281.9718017578125000,75.4131927490234400,20.4174308776855470,27.6998901367187500,95,138,108,88,60,14587,2155849170,2160794953,2161398208,2148807698,2151414025,2153835693,2154229897,2147949513,1063,-2,9,46684
1340817404,5807,49.5900001525878900,20.5109996795654300,36.5965995788574200,281.8499145507812500,72.5923767089843800,20.5032806396484380,27.6696090698242200,94,138,108,88,61,14592,2156235419,2161251885,2161797193,2148871552,2151654720,2154149513,2154473472,2147981878,942,-2,8,25858
1340817483,5806,47.8100013732910160,20.7047996520996100,36.5833015441894500,281.2916870117187500,64.2133483886718800,20.7584800720214840,27.5872898101806640,89,137,109,90,62,14574,2157410788,2162526427,2162848758,2149061165,2152419812,2155080246,2155120310,2148081563,706,-2,8,26193
1340817588,5805,46.0000000000000000,21.1781005859375000,36.5908012390136700,279.3557128906250000,51.4197006225585940,21.1487007141113280,27.5034904479980470,84,136,109,89,60,14584,2158212004,2163294427,2163414939,2149236352,2153244928,2156005394,2155687789,2148169344,875,-2,9,16620
1340817788,5805,44.7099990844726560,21.3269004821777340,36.5882987976074200,278.0181884765625000,45.7213401794433600,21.3227405548095700,27.4847602844238280,80,135,109,89,60,14574,2157614171,2162021796,2161847789,2149119606,2153591296,2156088329,2155359296,2148107593,739,-3,8,8351
1340817857,5805,42.8699989318847660,21.4682006835937500,36.5822982788085940,277.1481018066406000,41.5341796875000000,21.4507198333740230,27.4666309356689450,78,134,109,88,60,14584,2158485339,2162881106,2162578002,2149353929,2154524946,2157101202,2156015844,2148208338,171,-2,8,13884
1340817962,5808,40.9199981689453100,21.5424995422363280,36.5550994873046900,277.2412109375000000,38.6011581420898440,21.5404205322265620,27.4272499084472660,77,136,108,88,61,14578,2160417014,2164933293,2164384758,2149741668,2156296786,2159091611,2157373979,2148394578,557,-3,9,39007
1340818125,5802,38.6399993896484400,22.0137004852294920,36.5273017883300800,274.8146972656250000,24.2623691558837900,21.9795207977294920,27.3453407287597660,74,135,108,88,60,14565,2166473234,2171865088,2170829540,2151033133,2161405513,2164965147,2161577856,2149011163,774,-1,8,33912
1340818170,5803,36.8699989318847660,22.1926002502441400,36.5219001770019500,273.4318847656250000,18.5279102325439450,22.1554203033447270,27.3288192749023440,76,141,108,89,61,14551,2169017261,2174687131,2173526546,2151746441,2163672109,2167499885,2163389997,2149324608,1068,-2,8,37775
1340818215,5804,34.6899986267089840,22.8197994232177730,36.4986000061035160,269.0180053710937500,-0.0048190359957516,22.7251091003417970,27.2755603790283200,77,136,107,89,61,14557,2170948461,2176831149,2175623771,2152560082,2165613257,2169594011,2164891474,2149638848,1144,-2,8,9098
1340818260,5805,32.7500000000000000,22.9333992004394530,36.5004997253418000,267.0125122070312500,-3.7668139934539795,22.8409900665283200,27.3089809417724600,77,138,108,88,59,14570,2171966153,2177916708,2176731968,2153088996,2166648996,2170724269,2165725193,2149827446,861,-1,8,51980
1340818377,5805,30.4799995422363280,22.9372005462646500,36.5013999938964840,265.0014953613281000,-6.9384279251098630,22.9387493133544920,27.3505992889404300,74,133,109,88,60,14572,2173580251,2179593828,2178423826,2154017673,2167980617,2172055222,2166825325,2150126070,586,-3,8,33546
1340818745,5805,28.8799991607666000,23.4568996429443360,36.3953018188476560,257.2153930664062500,-23.5102100372314450,23.4505100250244140,27.4647693634033200,75,136,109,90,60,14561,2167119716,2171553216,2170595968,2152794788,2163772388,2166448045,2162296758,2149508297,1585,-2,9,4718
1340818826,5806,26.8899993896484380,23.4845008850097660,36.3785018920898440,256.4497070312500000,-24.6548690795898440,23.4859199523925780,27.4824600219726560,73,136,109,89,59,14529,2165570688,2169540544,2168673609,2152689389,2162702052,2165004370,2161202816,2149417481,1589,-2,9,29787
